Glasgow, KY

1:09 AM CDT on September 20, 2017 (GMT -0500)
Glasgow Municipal

Weather History for KGLW - February, 2013

Change the Weather History Date:

Tuesday, February 26, 2013

  Actual Average Record
Temperature  
Mean Temperature 46 °F -  
Max Temperature 52 °F 51 °F 75 °F (1977)
Min Temperature 39 °F 30 °F 6 °F (1967)
Degree Days  
Heating Degree Days 20    
Moisture  
Dew Point 42 °F    
Average Humidity 83    
Maximum Humidity 100    
Minimum Humidity 43    
Precipitation  
Precipitation 0.34 in - - ()
Sea Level Pressure  
Sea Level Pressure 29.51 in    
Wind  
Wind Speed 13 mph (South)    
Max Wind Speed 24 mph    
Max Gust Speed 31 mph    
Visibility 9 miles    
Events Rain , Thunderstorm    
Averages and records for this station are not official NWS values.
T = Trace of Precipitation, MM = Missing Value Source: NWS Daily Summary

Daily Weather History Graph

Daily Weather History Graph

Search for Another Location

Airport or City:

Trip Planner

Search our weather history database for the weather conditions in past years. The results will help you decide how hot, cold, wet, or windy it might be!

Date:

Astronomy

Feb. 26, 2013 Rise Set
Actual Time 6:18 AM CST 5:35 PM CST
Civil Twilight 5:52 AM CST 6:01 PM CST
Nautical Twilight 5:22 AM CST 6:31 PM CST
Astronomical Twilight 4:52 AM CST 7:01 PM CST
Moon 6:48 PM CST (2/26) 6:23 AM CST (2/26)
Length of Visible Light 12h 09m
Length of Day
11h 16m
Full, 99% of the Moon is Illuminated
Feb 26
Full
Mar 4
Last Quarter
Mar 11
New
Mar 19
First Quarter
Mar 27
Full

Hourly Weather History & Observations

Time (CST) Temp. Windchill Dew Point Humidity Pressure Visibility Wind Dir Wind Speed Gust Speed Precip Events Conditions
12:15 AM 50.4 °F - 28.8 °F 43% 29.63 in 10.0 mi East 15.0 mph 19.6 mph N/A   Overcast
12:35 AM 50.5 °F - 28.9 °F 43% 29.61 in 10.0 mi East 15.0 mph 20.7 mph N/A   Overcast
12:55 AM 50.4 °F - 29.1 °F 44% 29.60 in 10.0 mi East 12.7 mph - N/A   Overcast
1:15 AM 50.2 °F - 29.3 °F 45% 29.58 in 10.0 mi East 13.8 mph 20.7 mph N/A   Overcast
1:35 AM 50.0 °F - 30.0 °F 46% 29.55 in 10.0 mi East 15.0 mph 18.4 mph N/A   Overcast
1:55 AM 50.0 °F - 30.6 °F 47% 29.55 in 10.0 mi East 12.7 mph - N/A   Overcast
2:15 AM 50.0 °F - 31.3 °F 49% 29.54 in 10.0 mi East 11.5 mph - N/A   Overcast
2:35 AM 50.0 °F - 32.0 °F 50% 29.52 in 10.0 mi East 11.5 mph - N/A   Overcast
2:55 AM 49.8 °F - 32.7 °F 52% 29.50 in 10.0 mi East 12.7 mph - N/A Rain Rain
3:15 AM 48.6 °F - 35.8 °F 61% 29.48 in 10.0 mi East 11.5 mph - 0.02 in Rain Rain
3:35 AM 46.4 °F 41.9 °F 39.2 °F 76% 29.48 in 10.0 mi ENE 9.2 mph - 0.05 in Rain Rain
3:55 AM 45.9 °F 40.8 °F 40.8 °F 83% 29.46 in 10.0 mi East 10.4 mph - 0.06 in Rain , Thunderstorm Rain
4:15 AM 46.0 °F 40.2 °F 43.5 °F 91% 29.45 in 10.0 mi East 12.7 mph - 0.01 in Rain Rain
4:35 AM 48.4 °F - 48.4 °F 100% 29.46 in 7.0 mi ESE 16.1 mph 26.5 mph 0.05 in Rain Heavy Rain
4:55 AM 50.4 °F - 50.4 °F 100% 29.44 in 7.0 mi ESE 15.0 mph 27.6 mph 0.09 in Rain Light Rain
5:15 AM 50.2 °F - 50.2 °F 100% 29.42 in 10.0 mi ESE 15.0 mph 20.7 mph N/A   Mostly Cloudy
5:35 AM 50.5 °F - 48.9 °F 94% 29.43 in 10.0 mi SE 12.7 mph 18.4 mph N/A   Mostly Cloudy
5:55 AM 50.7 °F - 48.6 °F 92% 29.42 in 10.0 mi SE 12.7 mph 16.1 mph N/A   Mostly Cloudy
6:15 AM 50.9 °F - 48.6 °F 92% 29.41 in 10.0 mi SE 10.4 mph 17.3 mph N/A   Overcast
6:35 AM 51.4 °F - 48.6 °F 90% 29.43 in 7.0 mi SSE 6.9 mph - 0.02 in Rain Rain
6:55 AM 50.7 °F - 50.5 °F 99% 29.43 in 4.0 mi SE 6.9 mph - 0.03 in Rain Rain
7:15 AM 50.7 °F - 50.7 °F 100% 29.43 in 10.0 mi SE 8.1 mph - N/A   Overcast
7:35 AM 51.1 °F - 51.1 °F 100% 29.43 in 10.0 mi SSE 9.2 mph - N/A   Overcast
7:55 AM 51.8 °F - 51.8 °F 100% 29.43 in 10.0 mi SSE 5.8 mph - N/A   Overcast
8:15 AM 51.8 °F - 51.8 °F 100% 29.43 in 10.0 mi SSE 5.8 mph - N/A Rain Light Rain
8:35 AM 52.0 °F - 52.0 °F 100% 29.43 in 10.0 mi SSE 5.8 mph - N/A Rain Light Rain
8:55 AM 52.3 °F - 51.4 °F 97% 29.42 in 10.0 mi SSE 8.1 mph - N/A Rain Light Rain
9:15 AM 52.7 °F - 49.8 °F 90% 29.42 in 10.0 mi South 15.0 mph 21.9 mph N/A Rain Rain
9:35 AM 52.9 °F - 49.1 °F 87% 29.42 in 7.0 mi South 13.8 mph 20.7 mph N/A   Drizzle
9:55 AM 52.3 °F - 50.9 °F 95% 29.41 in 5.0 mi South 9.2 mph 17.3 mph N/A Rain Rain
10:15 AM 51.8 °F - 51.8 °F 100% 29.42 in 7.0 mi South 6.9 mph - N/A   Drizzle
10:35 AM 51.6 °F - 51.6 °F 100% 29.42 in 5.0 mi South 9.2 mph - 0.02 in Rain Rain
10:55 AM 51.3 °F - 51.3 °F 100% 29.43 in 4.0 mi South 11.5 mph 23.0 mph 0.07 in Rain Rain
11:15 AM 50.7 °F - 50.7 °F 100% 29.43 in 7.0 mi South 9.2 mph 21.9 mph 0.01 in Rain Light Rain
11:35 AM 50.4 °F - 50.4 °F 100% 29.43 in 10.0 mi SSW 15.0 mph 18.4 mph 0.01 in   Overcast
11:55 AM 50.0 °F - 50.0 °F 100% 29.43 in 5.0 mi SSW 11.5 mph 16.1 mph 0.01 in   Drizzle
12:15 PM 50.9 °F - 50.9 °F 100% 29.42 in 7.0 mi SSW 10.4 mph 16.1 mph N/A Rain Light Rain
12:35 PM 51.3 °F - 50.7 °F 98% 29.42 in 7.0 mi SW 15.0 mph - N/A Rain Rain
12:55 PM 50.5 °F - 49.5 °F 96% 29.41 in 10.0 mi SSW 8.1 mph - N/A Rain Light Rain
1:15 PM 50.0 °F - 50.0 °F 100% 29.43 in 10.0 mi SW 24.2 mph 31.1 mph N/A Rain Rain
1:35 PM 46.9 °F - 46.2 °F 97% 29.44 in 5.0 mi SW 11.5 mph 25.3 mph 0.04 in Rain Light Rain
1:55 PM 46.8 °F - 46.4 °F 99% 29.43 in 10.0 mi SW 9.2 mph 16.1 mph 0.04 in   Overcast
2:15 PM 48.6 °F - 45.7 °F 90% 29.44 in 10.0 mi SSW 12.7 mph 17.3 mph N/A   Overcast
2:35 PM 48.7 °F - 43.5 °F 82% 29.46 in 7.0 mi SW 16.1 mph 21.9 mph N/A Rain Rain
2:55 PM 46.2 °F 40.1 °F 42.6 °F 87% 29.48 in 3.0 mi SW 13.8 mph 28.8 mph 0.03 in Rain Light Rain
3:15 PM 45.0 °F 39.3 °F 42.3 °F 90% 29.48 in 10.0 mi SW 11.5 mph - N/A   Overcast
3:35 PM 45.5 °F 39.2 °F 40.3 °F 82% 29.49 in 10.0 mi SW 13.8 mph 20.7 mph N/A   Overcast
3:55 PM 45.9 °F 39.7 °F 38.8 °F 76% 29.50 in 10.0 mi SW 13.8 mph - N/A   Overcast
4:15 PM 46.4 °F 41.5 °F 37.2 °F 70% 29.50 in 10.0 mi SW 10.4 mph - N/A   Overcast
4:35 PM 46.2 °F 39.5 °F 36.1 °F 68% 29.51 in 10.0 mi SW 16.1 mph 20.7 mph N/A   Overcast
4:55 PM 45.9 °F 40.0 °F 36.0 °F 68% 29.52 in 10.0 mi SSW 12.7 mph - N/A   Overcast
5:15 PM 45.5 °F 39.9 °F 36.0 °F 69% 29.53 in 10.0 mi SSW 11.5 mph - N/A   Overcast
5:35 PM 45.0 °F 38.2 °F 36.0 °F 71% 29.55 in 10.0 mi SW 15.0 mph 23.0 mph N/A   Overcast
5:55 PM 44.2 °F 39.2 °F 36.9 °F 75% 29.55 in 10.0 mi SSW 9.2 mph - N/A   Overcast
6:15 PM 43.3 °F 37.7 °F 37.8 °F 81% 29.56 in 10.0 mi SSW 10.4 mph - N/A   Light Drizzle
6:35 PM 43.0 °F 36.0 °F 37.9 °F 82% 29.57 in 10.0 mi SW 13.8 mph 18.4 mph N/A   Drizzle
6:55 PM 43.2 °F 35.9 °F 37.6 °F 81% 29.58 in 10.0 mi SW 15.0 mph - N/A   Light Drizzle
7:15 PM 42.6 °F 36.3 °F 37.0 °F 81% 29.59 in 10.0 mi SW 11.5 mph 25.3 mph N/A Rain Light Rain
7:35 PM 41.9 °F 34.0 °F 36.9 °F 82% 29.60 in 7.0 mi WSW 16.1 mph 23.0 mph N/A Rain Light Rain
7:55 PM 41.0 °F 33.9 °F 36.5 °F 84% 29.61 in 10.0 mi WSW 12.7 mph 17.3 mph N/A Rain Light Rain
8:15 PM 41.0 °F 32.8 °F 36.5 °F 84% 29.62 in 10.0 mi WSW 16.1 mph 20.7 mph N/A Rain Light Rain
8:35 PM 40.5 °F 32.8 °F 36.9 °F 87% 29.63 in 7.0 mi WSW 13.8 mph 20.7 mph N/A Rain Light Rain
8:55 PM 39.9 °F 32.5 °F 37.0 °F 89% 29.63 in 10.0 mi SW 12.7 mph 18.4 mph 0.01 in Rain Light Rain
9:15 PM 39.9 °F 32.5 °F 36.7 °F 88% 29.63 in 10.0 mi SW 12.7 mph - N/A   Overcast
9:35 PM 40.3 °F 32.6 °F 36.1 °F 85% 29.64 in 10.0 mi SW 13.8 mph 25.3 mph N/A   Overcast
9:55 PM 40.1 °F 32.7 °F 35.8 °F 85% 29.64 in 10.0 mi SW 12.7 mph - N/A   Overcast
10:15 PM 40.1 °F 33.2 °F 35.6 °F 84% 29.64 in 10.0 mi SW 11.5 mph - N/A   Overcast
10:35 PM 40.1 °F 32.4 °F 35.6 °F 84% 29.65 in 10.0 mi SW 13.8 mph 21.9 mph N/A   Light Drizzle
10:55 PM 40.1 °F 31.6 °F 35.4 °F 83% 29.65 in 10.0 mi SW 16.1 mph 20.7 mph N/A   Overcast
11:15 PM 40.1 °F 33.2 °F 35.1 °F 82% 29.65 in 10.0 mi SW 11.5 mph 20.7 mph N/A   Overcast
11:35 PM 40.1 °F 31.3 °F 35.1 °F 82% 29.66 in 10.0 mi SW 17.3 mph 23.0 mph N/A   Overcast
11:55 PM 40.1 °F 32.7 °F 34.9 °F 82% 29.66 in 10.0 mi SW 12.7 mph 18.4 mph N/A   Overcast